Location: Anciles
(42.5833°N, 0.5167°E)
Time: 17:20:51
(UTC+00:00)

COBE Rocket - Pass Details

Date: 10 December 2019
Orbit: 681 x 781 km, 97.1° (Epoch: 26 January)

Event Time Altitude Azimuth Distance (km) Brightness Sun altitude
Rises 17:41:29 0° 8° (N) 3,051 6.9 -13.7°
Reaches altitude 10° 17:43:44 10° 5° (N) 2,133 6.1 -14.1°
Maximum altitude 17:48:20 62° 285° (WNW) 774 4.3 -14.9°
Drops below altitude 10° 17:52:57 10° 205° (SSW) 2,146 6.9 -15.7°
Sets 17:55:14 0° 202° (SSW) 3,071 7.7 -16.1°
